The Dalles, WA

1:07 PM PST on December 11, 2019 (GMT -0800)
Columbia Gorge Regional-The Dalles

Weather History for KDLS - October, 2019

Change the Weather History Date:

Sunday, October 20, 2019

  Actual Average Record
Temperature  
Mean Temperature 50 °F -  
Max Temperature 55 °F 64 °F 77 °F (1952)
Min Temperature 46 °F 41 °F 26 °F (1949)
Degree Days  
Heating Degree Days 14    
Moisture  
Dew Point 42 °F    
Average Humidity 74    
Maximum Humidity 90    
Minimum Humidity 62    
Precipitation  
Precipitation 0.00 in - - ()
Sea Level Pressure  
Sea Level Pressure 30.06 in    
Wind  
Wind Speed 7 mph (NW)    
Max Wind Speed 21 mph    
Max Gust Speed 31 mph    
Visibility 10 miles    
Events      
Averages and records for this station are not official NWS values.
T = Trace of Precipitation, MM = Missing Value Source: NWS Daily Summary

Daily Weather History Graph

Daily Weather History Graph

Search for Another Location

Airport or City:

Astronomy

Oct. 20, 2019 Rise Set
Actual Time 7:27 AM PDT 6:10 PM PDT
Civil Twilight 6:57 AM PDT 6:40 PM PDT
Nautical Twilight 6:22 AM PDT 7:15 PM PDT
Astronomical Twilight 5:48 AM PDT 7:49 PM PDT
Moon 11:13 PM PDT (10/20) 2:12 PM PDT (10/20)
Length of Visible Light 11h 43m
Length of Day
10h 42m
Waning Gibbous, 58% of the Moon is Illuminated
Oct 20
Waning Gibbous
Oct 21
Last Quarter
Oct 27
New
Nov 4
First Quarter
Nov 12
Full

Hourly Weather History & Observations

Time (PDT) Temp. Windchill Dew Point Humidity Pressure Visibility Wind Dir Wind Speed Gust Speed Precip Events Conditions
12:53 AM 48.9 °F - 39.0 °F 69% 30.09 in 10.0 mi West 9.2 mph - N/A   Mostly Cloudy
1:53 AM 48.9 °F - 39.9 °F 71% 30.09 in 10.0 mi West 10.4 mph - N/A   Scattered Clouds
2:53 AM 48.9 °F - 41.0 °F 74% 30.10 in 10.0 mi WNW 11.5 mph - N/A   Partly Cloudy
3:53 AM 48.0 °F - 41.0 °F 77% 30.10 in 10.0 mi West 4.6 mph - N/A   Clear
4:53 AM 46.0 °F - 39.9 °F 79% 30.09 in 10.0 mi Calm Calm - N/A   Clear
5:53 AM 46.0 °F 43.9 °F 39.9 °F 79% 30.09 in 10.0 mi SSE 4.6 mph - N/A   Partly Cloudy
6:53 AM 46.0 °F 43.1 °F 39.9 °F 79% 30.11 in 10.0 mi ESE 5.8 mph - N/A   Overcast
7:53 AM 46.9 °F - 44.1 °F 90% 30.11 in 10.0 mi North 4.6 mph - N/A   Overcast
8:53 AM 48.0 °F - 42.1 °F 80% 30.10 in 10.0 mi SSW 3.5 mph - N/A   Overcast
9:53 AM 48.0 °F - 42.1 °F 80% 30.09 in 10.0 mi Calm Calm - N/A   Overcast
10:53 AM 48.9 °F - 43.0 °F 80% 30.10 in 10.0 mi Calm Calm - N/A   Overcast
11:53 AM 50.0 °F - 42.1 °F 74% 30.09 in 10.0 mi Calm Calm - N/A   Overcast
12:53 PM 53.1 °F - 44.1 °F 71% 30.07 in 10.0 mi ENE 4.6 mph - 0.00 in   Overcast
1:53 PM 53.1 °F - 43.0 °F 69% 30.04 in 10.0 mi ENE 10.4 mph - 0.00 in   Overcast
2:53 PM 54.0 °F - 43.0 °F 66% 30.02 in 10.0 mi NNE 4.6 mph - N/A   Overcast
3:53 PM 53.1 °F - 43.0 °F 69% 30.01 in 10.0 mi NW 5.8 mph - N/A   Overcast
4:53 PM 52.0 °F - 44.1 °F 74% 30.00 in 10.0 mi NW 8.1 mph - N/A   Overcast
5:21 PM 53.1 °F - 44.1 °F 71% 29.99 in 10.0 mi NNW 3.5 mph - N/A   Overcast
5:53 PM 52.0 °F - 44.1 °F 74% 29.99 in 10.0 mi NNW 4.6 mph - N/A   Overcast
6:53 PM 50.0 °F - 44.1 °F 80% 29.99 in 10.0 mi Calm Calm - N/A   Scattered Clouds
7:53 PM 48.9 °F - 43.0 °F 80% 30.00 in 10.0 mi Calm Calm - N/A   Mostly Cloudy
8:53 PM 51.1 °F - 45.0 °F 80% 30.01 in 10.0 mi WNW 12.7 mph - N/A   Overcast
9:53 PM 55.0 °F - 42.1 °F 62% 30.02 in 10.0 mi West 20.7 mph 31.1 mph N/A   Mostly Cloudy
10:53 PM 55.0 °F - 44.1 °F 67% 30.05 in 10.0 mi WNW 19.6 mph 28.8 mph N/A   Scattered Clouds
11:53 PM 55.9 °F - 44.1 °F 64% 30.07 in 10.0 mi Variable 4.6 mph - N/A   Overcast